,,PA_Meas_PMT16A,,PR_Meas_QMR101_102,,RH_Meas_QMH101,,SR_Meas_QMS101,,TA_Meas_QMH101,,GenWind,,GenWind,
time,status,PA,status,PR,status,RH,status,SR,status,TA,status,DirAvg,status,SpdAvg,
2012-07-21, 00:00:04,VALID,918.591,VALID,0,VALID,86.5258,VALID,0,VALID,21.3624,VALID,136,VALID,0,
2012-07-21, 00:01:04,VALID,918.613,VALID,0,VALID,86.4267,VALID,0,VALID,21.3624,VALID,136,VALID,0,
2012-07-21, 00:02:04,VALID,918.59,VALID,0,VALID,87.1738,VALID,0,VALID,21.2453,VALID,136,VALID,0,
2012-07-21, 00:03:04,VALID,918.604,VALID,0,VALID,87.776,VALID,0,VALID,21.1673,VALID,136,VALID,0,
2012-07-21, 00:04:04,VALID,918.607,VALID,0,VALID,87.959,VALID,0,VALID,21.0892,VALID,136,VALID,0,
2012-07-21, 00:05:04,VALID,918.629,VALID,0,VALID,88.2563,VALID,0,VALID,21.0518,VALID,136,VALID,0,
2012-07-21, 00:06:04,VALID,918.638,VALID,0,VALID,88.4545,VALID,0,VALID,21.0128,VALID,135,VALID,0,
2012-07-21, 00:07:04,VALID,918.643,VALID,0,VALID,88.4774,VALID,0,VALID,20.9527,VALID,136,VALID,0,
2012-07-21, 00:08:04,VALID,918.703,VALID,0,VALID,88.6146,VALID,0,VALID,20.8762,VALID,136,VALID,0,
2012-07-21, 00:09:04,VALID,918.698,VALID,0,VALID,88.9348,VALID,0,VALID,20.8567,VALID,136,VALID,0,
2012-07-21, 00:10:04,VALID,918.696,VALID,0,VALID,88.4697,VALID,0,VALID,20.7591,VALID,136,VALID,0,
2012-07-21, 00:11:04,VALID,918.698,VALID,0,VALID,88.7289,VALID,0,VALID,20.543,VALID,136,VALID,0,
2012-07-21, 00:12:04,VALID,918.714,VALID,0,VALID,90.2079,VALID,0,VALID,20.3885,VALID,136,VALID,0,
2012-07-21, 00:13:04,VALID,918.666,VALID,0,VALID,90.7796,VALID,0,VALID,20.2309,VALID,136,VALID,0,
2012-07-21, 00:14:04,VALID,918.637,VALID,0,VALID,91.7021,VALID,0,VALID,20.1139,VALID,136,VALID,0,
2012-07-21, 00:15:04,VALID,918.644,VALID,0,VALID,92.6169,VALID,0,VALID,20.0944,VALID,136,VALID,0,
2012-07-21, 00:16:04,VALID,918.613,VALID,0,VALID,92.6397,VALID,0,VALID,20.0764,VALID,136,VALID,0,
2012-07-21, 00:17:04,VALID,918.621,VALID,0,VALID,92.3501,VALID,0,VALID,19.9788,VALID,136,VALID,0,
2012-07-21, 00:18:04,VALID,918.623,VALID,0,VALID,92.3577,VALID,0,VALID,19.8423,VALID,136,VALID,0,
2012-07-21, 00:19:04,VALID,918.604,VALID,0,VALID,93.2496,VALID,0,VALID,19.8033,VALID,136,VALID,0,
2012-07-21, 00:20:04,VALID,918.623,VALID,0,VALID,93.8061,VALID,0,VALID,19.8033,VALID,136,VALID,0,
2012-07-21, 00:21:04,VALID,918.612,VALID,0,VALID,94.0882,VALID,0,VALID,19.8033,VALID,136,VALID,0,
2012-07-21, 00:22:04,VALID,918.586,VALID,0,VALID,94.1873,VALID,0,VALID,19.8228,VALID,136,VALID,0,
2012-07-21, 00:23:04,VALID,918.599,VALID,0,VALID,94.355,VALID,0,VALID,19.8033,VALID,135,VALID,0,
2012-07-21, 00:24:04,VALID,918.592,VALID,0,VALID,94.3017,VALID,0,VALID,19.7448,VALID,68,VALID,0,
2012-07-21, 00:25:04,VALID,918.583,VALID,0,VALID,94.599,VALID,0,VALID,19.7448,VALID,68,VALID,0,
2012-07-21, 00:26:04,VALID,918.544,VALID,0,VALID,94.8963,VALID,0,VALID,19.7838,VALID,68,VALID,0,
2012-07-21, 00:27:04,VALID,918.56,VALID,0,VALID,94.8353,VALID,0,VALID,19.8048,VALID,68,VALID,0,
2012-07-21, 00:28:04,VALID,918.509,VALID,0,VALID,94.5227,VALID,0,VALID,19.6863,VALID,68,VALID,0,
2012-07-21, 00:29:04,VALID,918.503,VALID,0,VALID,94.8734,VALID,0,VALID,19.6863,VALID,68,VALID,0,
2012-07-21, 00:30:04,VALID,918.502,VALID,0,VALID,94.9801,VALID,0,VALID,19.6863,VALID,68,VALID,0,
2012-07-21, 00:31:04,VALID,918.483,VALID,0,VALID,95.064,VALID,0,VALID,19.6458,VALID,68,VALID,0,
2012-07-21, 00:32:04,VALID,918.469,VALID,0,VALID,95.247,VALID,0,VALID,19.6863,VALID,68,VALID,0,
2012-07-21, 00:33:04,VALID,918.504,VALID,0,VALID,95.1936,VALID,0,VALID,19.6473,VALID,68,VALID,0,
2012-07-21, 00:34:04,VALID,918.502,VALID,0,VALID,95.3156,VALID,0,VALID,19.6473,VALID,68,VALID,0,
2012-07-21, 00:35:04,VALID,918.519,VALID,0,VALID,95.3918,VALID,0,VALID,19.6668,VALID,68,VALID,0,
2012-07-21, 00:36:04,VALID,918.547,VALID,0,VALID,95.4375,VALID,0,VALID,19.6863,VALID,68,VALID,0,
2012-07-21, 00:37:04,VALID,918.587,VALID,0,VALID,95.4452,VALID,0,VALID,19.7058,VALID,68,VALID,0,
2012-07-21, 00:38:04,VALID,918.582,VALID,0,VALID,95.59,VALID,0,VALID,19.7643,VALID,68,VALID,0,
2012-07-21, 00:39:04,VALID,918.621,VALID,0,VALID,95.7501,VALID,0,VALID,19.8018,VALID,68,VALID,0,
2012-07-21, 00:40:04,VALID,918.582,VALID,0,VALID,95.7425,VALID,0,VALID,19.8243,VALID,68,VALID,0,
2012-07-21, 00:41:04,VALID,918.592,VALID,0,VALID,95.7196,VALID,0,VALID,19.8033,VALID,68,VALID,0,
2012-07-21, 00:42:04,VALID,918.565,VALID,0,VALID,95.6891,VALID,0,VALID,19.8228,VALID,68,VALID,0,
2012-07-21, 00:43:04,VALID,918.585,VALID,0,VALID,95.7196,VALID,0,VALID,19.8618,VALID,68,VALID,0,
2012-07-21, 00:44:04,VALID,918.591,VALID,0,VALID,95.5367,VALID,0,VALID,19.8813,VALID,68,VALID,0,
2012-07-21, 00:45:04,VALID,918.597,VALID,0,VALID,95.3537,VALID,0,VALID,19.8618,VALID,68,VALID,0,
2012-07-21, 00:46:04,VALID,918.611,VALID,0,VALID,95.2088,VALID,0,VALID,19.8618,VALID,68,VALID,0,
2012-07-21, 00:47:04,VALID,918.642,VALID,0,VALID,94.9649,VALID,0,VALID,19.8228,VALID,68,VALID,0,
2012-07-21, 00:48:04,VALID,918.632,VALID,0,VALID,94.7743,VALID,0,VALID,19.8228,VALID,68,VALID,0,
2012-07-21, 00:49:04,VALID,918.639,VALID,0,VALID,94.3017,VALID,0,VALID,19.7448,VALID,123,VALID,0,
2012-07-21, 00:50:04,VALID,918.627,VALID,0,VALID,94.1339,VALID,0,VALID,19.7268,VALID,150,VALID,0,
2012-07-21, 00:51:04,VALID,918.581,VALID,0,VALID,94.2254,VALID,0,VALID,19.6278,VALID,150,VALID,0,
2012-07-21, 00:52:04,VALID,918.603,VALID,0,VALID,94.4922,VALID,0,VALID,19.6293,VALID,150,VALID,0,
2012-07-21, 00:53:04,VALID,918.589,VALID,0,VALID,94.5913,VALID,0,VALID,19.5708,VALID,150,VALID,0,
2012-07-21, 00:54:04,VALID,918.591,VALID,0,VALID,94.8429,VALID,0,VALID,19.5693,VALID,150,VALID,0,
2012-07-21, 00:55:04,VALID,918.554,VALID,0,VALID,95.0106,VALID,0,VALID,19.5498,VALID,150,VALID,0,
2012-07-21, 00:56:04,VALID,918.586,VALID,0,VALID,95.0564,VALID,0,VALID,19.5498,VALID,150,VALID,0,
2012-07-21, 00:57:04,VALID,918.543,VALID,0,VALID,95.1402,VALID,0,VALID,19.5303,VALID,150,VALID,0,
2012-07-21, 00:58:04,VALID,918.566,VALID,0,VALID,95.3613,VALID,0,VALID,19.5693,VALID,150,VALID,0,
2012-07-21, 00:59:04,VALID,918.544,VALID,0,VALID,95.4147,VALID,0,VALID,19.6083,VALID,150,VALID,0,
2012-07-21, 01:00:04,VALID,918.545,VALID,0,VALID,95.3003,VALID,0,VALID,19.6098,VALID,150,VALID,0,
2012-07-21, 01:01:04,VALID,918.58,VALID,0,VALID,95.4299,VALID,0,VALID,19.6473,VALID,150,VALID,0,
2012-07-21, 01:02:04,VALID,918.553,VALID,0,VALID,95.1936,VALID,0,VALID,19.6293,VALID,150,VALID,0,
2012-07-21, 01:03:04,VALID,918.558,VALID,0,VALID,95.1402,VALID,0,VALID,19.5888,VALID,150,VALID,0,
2012-07-21, 01:04:04,VALID,918.581,VALID,0,VALID,95.2165,VALID,0,VALID,19.6083,VALID,150,VALID,0,
2012-07-21, 01:05:04,VALID,918.581,VALID,0,VALID,95.1479,VALID,0,VALID,19.5903,VALID,150,VALID,0,
2012-07-21, 01:06:04,VALID,918.545,VALID,0,VALID,95.1783,VALID,0,VALID,19.5498,VALID,150,VALID,0,
2012-07-21, 01:07:04,VALID,918.582,VALID,0,VALID,95.2698,VALID,0,VALID,19.5498,VALID,150,VALID,0,
2012-07-21, 01:08:04,VALID,918.568,VALID,0,VALID,95.2775,VALID,0,VALID,19.5512,VALID,150,VALID,0,
2012-07-21, 01:09:04,VALID,918.574,VALID,0,VALID,95.3537,VALID,0,VALID,19.5512,VALID,150,VALID,0,
2012-07-21, 01:10:04,VALID,918.562,VALID,0,VALID,95.3918,VALID,0,VALID,19.5317,VALID,150,VALID,0,
2012-07-21, 01:11:04,VALID,918.573,VALID,0,VALID,95.5443,VALID,0,VALID,19.5693,VALID,150,VALID,0,
2012-07-21, 01:12:04,VALID,918.565,VALID,0,VALID,95.6662,VALID,0.107441,VALID,19.5873,VALID,150,VALID,0,
2012-07-21, 01:13:04,VALID,918.596,VALID,0,VALID,95.4985,VALID,0,VALID,19.5498,VALID,150,VALID,0,
2012-07-21, 01:14:04,VALID,918.541,VALID,0,VALID,95.6053,VALID,0,VALID,19.5303,VALID,150,VALID,0,
2012-07-21, 01:15:04,VALID,918.514,VALID,0,VALID,95.6586,VALID,0,VALID,19.5093,VALID,150,VALID,0,
2012-07-21, 01:16:04,VALID,918.509,VALID,0,VALID,95.7501,VALID,0,VALID,19.5498,VALID,150,VALID,0,
2012-07-21, 01:17:04,VALID,918.521,VALID,0,VALID,95.773,VALID,0,VALID,19.5693,VALID,150,VALID,0,
2012-07-21, 01:18:04,VALID,918.481,VALID,0,VALID,95.7425,VALID,0,VALID,19.5303,VALID,149,VALID,0,
2012-07-21, 01:19:04,VALID,918.446,VALID,0,VALID,95.9102,VALID,0,VALID,19.5693,VALID,149,VALID,0,
2012-07-21, 01:20:04,VALID,918.424,VALID,0,VALID,96.0322,VALID,0,VALID,19.5873,VALID,133,VALID,0,
2012-07-21, 01:21:04,VALID,918.37,VALID,0,VALID,96.0017,VALID,0,VALID,19.5693,VALID,133,VALID,0,
2012-07-21, 01:22:04,VALID,918.366,VALID,0,VALID,95.9941,VALID,0,VALID,19.5498,VALID,133,VALID,0,
2012-07-21, 01:23:04,VALID,918.346,VALID,0,VALID,96.0169,VALID,0,VALID,19.5303,VALID,122,VALID,0,
2012-07-21, 01:24:04,VALID,918.327,VALID,0,VALID,96.0703,VALID,0,VALID,19.4913,VALID,102,VALID,0,
2012-07-21, 01:25:04,VALID,918.312,VALID,0,VALID,96.0474,VALID,0,VALID,19.4718,VALID,92,VALID,0,
2012-07-21, 01:26:04,VALID,918.304,VALID,0,VALID,96.116,VALID,0,VALID,19.4718,VALID,100,VALID,0,
2012-07-21, 01:27:04,VALID,918.268,VALID,0,VALID,96.1465,VALID,0,VALID,19.4523,VALID,100,VALID,0,
2012-07-21, 01:28:04,VALID,918.264,VALID,0,VALID,96.177,VALID,0,VALID,19.4537,VALID,100,VALID,0,
2012-07-21, 01:29:04,VALID,918.256,VALID,0,VALID,96.0627,VALID,0,VALID,19.3937,VALID,100,VALID,0,
2012-07-21, 01:30:04,VALID,918.224,VALID,0,VALID,96.1694,VALID,0,VALID,19.3143,VALID,100,VALID,0,
2012-07-21, 01:31:04,VALID,918.196,VALID,0,VALID,96.1694,VALID,0,VALID,19.3352,VALID,100,VALID,0,
2012-07-21, 01:32:04,VALID,918.199,VALID,0,VALID,96.2609,VALID,0,VALID,19.3172,VALID,100,VALID,0,
2012-07-21, 01:33:04,VALID,918.172,VALID,0,VALID,96.3066,VALID,0,VALID,19.2767,VALID,100,VALID,0,
2012-07-21, 01:34:04,VALID,918.148,VALID,0,VALID,96.3829,VALID,0,VALID,19.2767,VALID,121,VALID,0,
2012-07-21, 01:35:04,VALID,918.174,VALID,0,VALID,96.5124,VALID,0,VALID,19.3352,VALID,121,VALID,0,
2012-07-21, 01:36:04,VALID,918.119,VALID,0,VALID,96.5277,VALID,0,VALID,19.3547,VALID,122,VALID,0,
2012-07-21, 01:37:04,VALID,918.127,VALID,0,VALID,96.5429,VALID,0,VALID,19.3338,VALID,141,VALID,0,
2012-07-21, 01:38:04,VALID,918.159,VALID,0,VALID,96.4896,VALID,0,VALID,19.2948,VALID,141,VALID,0,
2012-07-21, 01:39:04,VALID,918.102,VALID,0,VALID,96.4515,VALID,0,VALID,19.2767,VALID,141,VALID,0,
2012-07-21, 01:40:04,VALID,918.091,VALID,0,VALID,96.3981,VALID,0,VALID,19.2182,VALID,141,VALID,0,
2012-07-21, 01:41:04,VALID,918.067,VALID,0,VALID,96.3752,VALID,0,VALID,19.1597,VALID,141,VALID,0,
2012-07-21, 01:42:04,VALID,918.038,VALID,0,VALID,96.4438,VALID,0,VALID,19.1207,VALID,141,VALID,0,
2012-07-21, 01:43:04,VALID,918.011,VALID,0,VALID,96.5124,VALID,0,VALID,19.1012,VALID,141,VALID,0,
2012-07-21, 01:44:04,VALID,917.984,VALID,0,VALID,96.6039,VALID,0,VALID,19.1012,VALID,141,VALID,0,
2012-07-21, 01:45:04,VALID,917.953,VALID,0,VALID,96.6192,VALID,0,VALID,19.0608,VALID,141,VALID,0,
2012-07-21, 01:46:04,VALID,917.962,VALID,0,VALID,96.703,VALID,0,VALID,19.1012,VALID,141,VALID,0,
2012-07-21, 01:47:04,VALID,917.932,VALID,0,VALID,96.7564,VALID,0,VALID,19.0998,VALID,141,VALID,0,
2012-07-21, 01:48:04,VALID,917.911,VALID,0,VALID,96.825,VALID,0,VALID,19.1612,VALID,141,VALID,0,
2012-07-21, 01:49:04,VALID,917.935,VALID,0,VALID,96.8021,VALID,0,VALID,19.1402,VALID,141,VALID,0,
2012-07-21, 01:50:04,VALID,917.927,VALID,0,VALID,96.7793,VALID,0,VALID,19.1402,VALID,141,VALID,0,
2012-07-21, 01:51:04,VALID,917.928,VALID,0,VALID,96.886,VALID,0,VALID,19.1973,VALID,141,VALID,0,
2012-07-21, 01:52:04,VALID,917.924,VALID,0,VALID,96.9698,VALID,0,VALID,19.2767,VALID,141,VALID,0,
2012-07-21, 01:53:04,VALID,917.912,VALID,0,VALID,97.008,VALID,0,VALID,19.3157,VALID,141,VALID,0,
2012-07-21, 01:54:04,VALID,917.914,VALID,0,VALID,96.9241,VALID,0,VALID,19.3157,VALID,141,VALID,0,
2012-07-21, 01:55:04,VALID,917.866,VALID,0,VALID,96.8479,VALID,0,VALID,19.2962,VALID,141,VALID,0,
2012-07-21, 01:56:04,VALID,917.873,VALID,0,VALID,96.825,VALID,0,VALID,19.2558,VALID,141,VALID,0,
2012-07-21, 01:57:04,VALID,917.873,VALID,0,VALID,96.7793,VALID,0.107441,VALID,19.2363,VALID,141,VALID,0,
2012-07-21, 01:58:04,VALID,917.822,VALID,0,VALID,96.6344,VALID,0,VALID,19.1778,VALID,141,VALID,0,
2012-07-21, 01:59:04,VALID,917.801,VALID,0,VALID,96.642,VALID,0,VALID,19.1388,VALID,141,VALID,0,
2012-07-21, 02:00:04,VALID,917.774,VALID,0,VALID,96.7335,VALID,0,VALID,19.1207,VALID,141,VALID,0,
2012-07-21, 02:01:04,VALID,917.77,VALID,0,VALID,96.8174,VALID,0.107441,VALID,19.1583,VALID,141,VALID,0,
2012-07-21, 02:02:04,VALID,917.782,VALID,0,VALID,96.8174,VALID,0,VALID,19.1792,VALID,141,VALID,0,
2012-07-21, 02:03:04,VALID,917.782,VALID,0,VALID,96.8631,VALID,0,VALID,19.2168,VALID,141,VALID,0,
2012-07-21, 02:04:04,VALID,917.763,VALID,0,VALID,96.8174,VALID,0,VALID,19.2377,VALID,140,VALID,0,
2012-07-21, 02:05:04,VALID,917.817,VALID,0,VALID,96.0093,VALID,0,VALID,19.0427,VALID,141,VALID,0,
2012-07-21, 02:06:04,VALID,917.805,VALID,0,VALID,95.8263,VALID,0,VALID,18.8087,VALID,53,VALID,0,
2012-07-21, 02:07:04,VALID,917.789,VALID,0,VALID,96.4743,VALID,0,VALID,18.8268,VALID,53,VALID,0,
2012-07-21, 02:08:04,VALID,917.774,VALID,0,VALID,96.6802,VALID,0,VALID,18.9062,VALID,53,VALID,0,
2012-07-21, 02:09:04,VALID,917.724,VALID,0,VALID,96.7793,VALID,0.107441,VALID,18.9257,VALID,53,VALID,0,
2012-07-21, 02:10:04,VALID,917.748,VALID,0,VALID,96.8174,VALID,0,VALID,18.9647,VALID,53,VALID,0,
2012-07-21, 02:11:04,VALID,917.763,VALID,0,VALID,96.8936,VALID,0,VALID,19.0037,VALID,53,VALID,0,
2012-07-21, 02:12:04,VALID,917.763,VALID,0,VALID,96.9241,VALID,0,VALID,19.0427,VALID,53,VALID,0,
2012-07-21, 02:13:04,VALID,917.785,VALID,0,VALID,96.947,VALID,0,VALID,19.0622,VALID,53,VALID,0,
2012-07-21, 02:14:04,VALID,917.773,VALID,0,VALID,96.947,VALID,0.107441,VALID,19.0803,VALID,53,VALID,0,
2012-07-21, 02:15:04,VALID,917.81,VALID,0,VALID,96.9241,VALID,0,VALID,19.0998,VALID,53,VALID,0,
2012-07-21, 02:16:04,VALID,917.805,VALID,0,VALID,96.9394,VALID,0,VALID,19.1207,VALID,53,VALID,0,
2012-07-21, 02:17:04,VALID,917.841,VALID,0,VALID,96.9241,VALID,0,VALID,19.1012,VALID,53,VALID,0,
2012-07-21, 02:18:04,VALID,917.831,VALID,0,VALID,96.7411,VALID,0.107441,VALID,19.0413,VALID,53,VALID,0,
2012-07-21, 02:19:04,VALID,917.826,VALID,0,VALID,96.8174,VALID,0,VALID,18.9828,VALID,53,VALID,0,
2012-07-21, 02:20:04,VALID,917.819,VALID,0,VALID,96.947,VALID,0,VALID,19.0232,VALID,53,VALID,0,
2012-07-21, 02:21:04,VALID,917.793,VALID,0,VALID,97.008,VALID,0,VALID,19.0413,VALID,54,VALID,0,
2012-07-21, 02:22:04,VALID,917.8,VALID,0,VALID,96.9927,VALID,0,VALID,19.0413,VALID,53,VALID,0,
2012-07-21, 02:23:04,VALID,917.819,VALID,0,VALID,97.0003,VALID,0,VALID,19.0622,VALID,53,VALID,0,
2012-07-21, 02:24:04,VALID,917.832,VALID,0,VALID,97.0385,VALID,0,VALID,19.0817,VALID,53,VALID,0,
2012-07-21, 02:25:04,VALID,917.81,VALID,0,VALID,97.0613,VALID,0,VALID,19.0608,VALID,53,VALID,0,
2012-07-21, 02:26:04,VALID,917.77,VALID,0,VALID,97.0537,VALID,0,VALID,19.0803,VALID,53,VALID,0,
2012-07-21, 02:27:04,VALID,917.775,VALID,0,VALID,97.069,VALID,0,VALID,19.0998,VALID,53,VALID,0,
2012-07-21, 02:28:04,VALID,917.75,VALID,0,VALID,97.0461,VALID,0,VALID,19.1207,VALID,53,VALID,0,
2012-07-21, 02:29:04,VALID,917.734,VALID,0,VALID,97.0918,VALID,0.107441,VALID,19.0998,VALID,53,VALID,0,
2012-07-21, 02:30:04,VALID,917.741,VALID,0,VALID,97.0918,VALID,0,VALID,19.1193,VALID,53,VALID,0,
2012-07-21, 02:31:04,VALID,917.662,VALID,0,VALID,97.0461,VALID,0,VALID,19.0803,VALID,53,VALID,0,
2012-07-21, 02:32:04,VALID,917.675,VALID,0,VALID,97.0156,VALID,0,VALID,19.0622,VALID,53,VALID,0,
2012-07-21, 02:33:04,VALID,917.675,VALID,0,VALID,97.0003,VALID,0,VALID,19.0427,VALID,53,VALID,0,
2012-07-21, 02:34:04,VALID,917.676,VALID,0,VALID,97.008,VALID,0,VALID,18.9842,VALID,53,VALID,0,
2012-07-21, 02:35:04,VALID,917.653,VALID,0,VALID,97.0613,VALID,0,VALID,18.9842,VALID,53,VALID,0,
2012-07-21, 02:36:04,VALID,917.662,VALID,0,VALID,97.1071,VALID,0,VALID,19.0023,VALID,53,VALID,0,
2012-07-21, 02:37:04,VALID,917.71,VALID,0,VALID,97.1223,VALID,0,VALID,19.0218,VALID,53,VALID,0,
2012-07-21, 02:38:04,VALID,917.674,VALID,0,VALID,97.1376,VALID,0,VALID,19.0803,VALID,53,VALID,0,
2012-07-21, 02:39:04,VALID,917.691,VALID,0,VALID,97.1376,VALID,0,VALID,19.0622,VALID,156,VALID,0,
2012-07-21, 02:40:04,VALID,917.672,VALID,0,VALID,97.1376,VALID,0.107441,VALID,19.0218,VALID,156,VALID,0,
2012-07-21, 02:41:04,VALID,917.669,VALID,0,VALID,97.1147,VALID,0,VALID,19.0037,VALID,156,VALID,0,
2012-07-21, 02:42:04,VALID,917.635,VALID,0,VALID,97.1376,VALID,0.107441,VALID,18.9842,VALID,156,VALID,0,
2012-07-21, 02:43:04,VALID,917.64,VALID,0,VALID,97.1376,VALID,0.107441,VALID,18.9633,VALID,156,VALID,0,
2012-07-21, 02:44:04,VALID,917.652,VALID,0,VALID,97.1299,VALID,0,VALID,18.9633,VALID,156,VALID,0,
2012-07-21, 02:45:04,VALID,917.636,VALID,0,VALID,97.1376,VALID,0,VALID,18.9647,VALID,156,VALID,0,
2012-07-21, 02:46:04,VALID,917.612,VALID,0,VALID,97.1147,VALID,0,VALID,18.9048,VALID,156,VALID,0,
2012-07-21, 02:47:04,VALID,917.607,VALID,0,VALID,97.1223,VALID,0.107441,VALID,18.8853,VALID,156,VALID,0,
2012-07-21, 02:48:04,VALID,917.575,VALID,0,VALID,97.1223,VALID,0,VALID,18.8672,VALID,156,VALID,0,
2012-07-21, 02:49:04,VALID,917.584,VALID,0,VALID,97.1376,VALID,0,VALID,18.8463,VALID,156,VALID,0,
2012-07-21, 02:50:04,VALID,917.562,VALID,0,VALID,97.1452,VALID,0.107441,VALID,18.8282,VALID,156,VALID,0,
2012-07-21, 02:51:04,VALID,917.57,VALID,0,VALID,97.1223,VALID,0,VALID,18.7683,VALID,156,VALID,0,
2012-07-21, 02:52:04,VALID,917.579,VALID,0,VALID,97.1147,VALID,0,VALID,18.7503,VALID,156,VALID,0,
2012-07-21, 02:53:04,VALID,917.535,VALID,0,VALID,97.1223,VALID,0,VALID,18.6903,VALID,156,VALID,0,
2012-07-21, 02:54:04,VALID,917.523,VALID,0,VALID,97.0918,VALID,0,VALID,18.6918,VALID,156,VALID,0,
2012-07-21, 02:55:04,VALID,917.526,VALID,0,VALID,97.1833,VALID,0,VALID,18.7113,VALID,156,VALID,0,
2012-07-21, 02:56:04,VALID,917.479,VALID,0,VALID,97.1986,VALID,0,VALID,18.7113,VALID,156,VALID,0,
2012-07-21, 02:57:04,VALID,917.461,VALID,0,VALID,97.2214,VALID,0,VALID,18.8087,VALID,156,VALID,0,
2012-07-21, 02:58:04,VALID,917.482,VALID,0,VALID,97.229,VALID,0,VALID,18.8672,VALID,156,VALID,0,
2012-07-21, 02:59:04,VALID,917.467,VALID,0,VALID,97.2672,VALID,0,VALID,18.7892,VALID,156,VALID,0,
2012-07-21, 03:00:04,VALID,917.474,VALID,0,VALID,97.2519,VALID,0,VALID,18.7892,VALID,156,VALID,0,
2012-07-21, 03:01:04,VALID,917.495,VALID,0,VALID,97.2595,VALID,0,VALID,18.8087,VALID,156,VALID,0,
2012-07-21, 03:02:04,VALID,917.503,VALID,0,VALID,97.2672,VALID,0,VALID,18.8087,VALID,156,VALID,0,
2012-07-21, 03:03:04,VALID,917.524,VALID,0,VALID,97.2595,VALID,0,VALID,18.8073,VALID,156,VALID,0,
2012-07-21, 03:04:04,VALID,917.595,VALID,0,VALID,97.2595,VALID,0,VALID,18.7697,VALID,156,VALID,0,
2012-07-21, 03:05:04,VALID,917.609,VALID,0,VALID,97.2519,VALID,0,VALID,18.7308,VALID,156,VALID,0,
2012-07-21, 03:06:04,VALID,917.675,VALID,0,VALID,97.2519,VALID,0,VALID,18.6723,VALID,156,VALID,0,
2012-07-21, 03:07:04,VALID,917.704,VALID,0,VALID,97.2214,VALID,0,VALID,18.6333,VALID,156,VALID,0,
2012-07-21, 03:08:04,VALID,917.702,VALID,0,VALID,97.2443,VALID,0,VALID,18.6528,VALID,156,VALID,0,
2012-07-21, 03:09:04,VALID,917.74,VALID,0,VALID,97.2595,VALID,0,VALID,18.6528,VALID,156,VALID,0,
2012-07-21, 03:10:04,VALID,917.763,VALID,0,VALID,97.2824,VALID,0,VALID,18.6124,VALID,156,VALID,0,
2012-07-21, 03:11:04,VALID,917.789,VALID,0,VALID,97.2672,VALID,0,VALID,18.6124,VALID,156,VALID,0,
2012-07-21, 03:12:04,VALID,917.84,VALID,0,VALID,97.3053,VALID,0.107441,VALID,18.5943,VALID,156,VALID,0,
2012-07-21, 03:13:04,VALID,917.809,VALID,0,VALID,97.2824,VALID,0,VALID,18.5734,VALID,143,VALID,0,
2012-07-21, 03:14:04,VALID,917.826,VALID,0,VALID,97.3053,VALID,0,VALID,18.5748,VALID,143,VALID,0,
2012-07-21, 03:15:04,VALID,917.796,VALID,0,VALID,97.2977,VALID,0,VALID,18.5553,VALID,143,VALID,0,
2012-07-21, 03:16:04,VALID,917.819,VALID,0,VALID,97.2977,VALID,0,VALID,18.5553,VALID,143,VALID,0,
2012-07-21, 03:17:04,VALID,917.767,VALID,0,VALID,97.29,VALID,0,VALID,18.5553,VALID,143,VALID,0,
2012-07-21, 03:18:04,VALID,917.764,VALID,0,VALID,97.3205,VALID,0,VALID,18.5539,VALID,143,VALID,0,
2012-07-21, 03:19:04,VALID,917.766,VALID,0,VALID,97.3358,VALID,0.107441,VALID,18.5344,VALID,143,VALID,0,
2012-07-21, 03:20:04,VALID,917.753,VALID,0,VALID,97.3358,VALID,0.107441,VALID,18.5344,VALID,143,VALID,0,
2012-07-21, 03:21:04,VALID,917.758,VALID,0,VALID,97.3434,VALID,0,VALID,18.5553,VALID,143,VALID,0,
2012-07-21, 03:22:04,VALID,917.789,VALID,0,VALID,97.3663,VALID,0,VALID,18.5344,VALID,143,VALID,0,
2012-07-21, 03:23:04,VALID,917.805,VALID,0,VALID,97.3663,VALID,0.107441,VALID,18.5539,VALID,143,VALID,0,
2012-07-21, 03:24:04,VALID,917.781,VALID,0,VALID,97.3663,VALID,0,VALID,18.5358,VALID,143,VALID,0,
2012-07-21, 03:25:04,VALID,917.812,VALID,0,VALID,97.3891,VALID,0.107441,VALID,18.5748,VALID,143,VALID,0,
2012-07-21, 03:26:04,VALID,917.794,VALID,0,VALID,97.3815,VALID,0,VALID,18.5539,VALID,143,VALID,0,
2012-07-21, 03:27:04,VALID,917.78,VALID,0,VALID,97.3815,VALID,0,VALID,18.6138,VALID,143,VALID,0,
2012-07-21, 03:28:04,VALID,917.818,VALID,0,VALID,97.412,VALID,0,VALID,18.6528,VALID,143,VALID,0,
2012-07-21, 03:29:04,VALID,917.824,VALID,0,VALID,97.4196,VALID,0,VALID,18.7113,VALID,143,VALID,0,
2012-07-21, 03:30:04,VALID,917.815,VALID,0,VALID,97.412,VALID,0,VALID,18.7308,VALID,133,VALID,0,
2012-07-21, 03:31:04,VALID,917.835,VALID,0,VALID,97.4349,VALID,0,VALID,18.7892,VALID,133,VALID,0,
2012-07-21, 03:32:04,VALID,917.86,VALID,0,VALID,97.4349,VALID,0,VALID,18.8087,VALID,123,VALID,0,
2012-07-21, 03:33:04,VALID,917.883,VALID,0,VALID,97.4501,VALID,0,VALID,18.8073,VALID,122,VALID,0,
2012-07-21, 03:34:04,VALID,917.878,VALID,0,VALID,97.4349,VALID,0.107441,VALID,18.8073,VALID,122,VALID,0,
2012-07-21, 03:35:04,VALID,917.896,VALID,0,VALID,97.4425,VALID,0,VALID,18.8477,VALID,127,VALID,0,
2012-07-21, 03:36:04,VALID,917.879,VALID,0,VALID,97.4501,VALID,0,VALID,18.8477,VALID,141,VALID,0,
2012-07-21, 03:37:04,VALID,917.893,VALID,0,VALID,97.4273,VALID,0,VALID,18.8672,VALID,155,VALID,0,
2012-07-21, 03:38:04,VALID,917.911,VALID,0,VALID,97.4425,VALID,0,VALID,18.8463,VALID,156,VALID,0,
2012-07-21, 03:39:04,VALID,917.924,VALID,0,VALID,97.4501,VALID,0,VALID,18.8672,VALID,156,VALID,0,
2012-07-21, 03:40:04,VALID,917.911,VALID,0,VALID,97.4501,VALID,0.107441,VALID,18.9452,VALID,156,VALID,0,
2012-07-21, 03:41:04,VALID,917.906,VALID,0,VALID,97.4425,VALID,0,VALID,18.9257,VALID,156,VALID,0,
2012-07-21, 03:42:04,VALID,917.887,VALID,0,VALID,97.4501,VALID,0,VALID,18.9842,VALID,156,VALID,0,
2012-07-21, 03:43:04,VALID,917.925,VALID,0,VALID,97.4425,VALID,0,VALID,18.9647,VALID,144,VALID,0,
2012-07-21, 03:44:04,VALID,917.927,VALID,0,VALID,97.4425,VALID,0.107441,VALID,18.9647,VALID,144,VALID,0,
2012-07-21, 03:45:04,VALID,917.894,VALID,0,VALID,97.4501,VALID,0,VALID,19.0052,VALID,144,VALID,0,
2012-07-21, 03:46:04,VALID,917.9,VALID,0,VALID,97.4349,VALID,0,VALID,18.9842,VALID,144,VALID,0,
2012-07-21, 03:47:04,VALID,917.895,VALID,0,VALID,97.4501,VALID,0,VALID,19.0232,VALID,144,VALID,0,
2012-07-21, 03:48:04,VALID,917.865,VALID,0,VALID,97.4501,VALID,0,VALID,19.0427,VALID,144,VALID,0,
2012-07-21, 03:49:04,VALID,917.867,VALID,0,VALID,97.4196,VALID,0,VALID,19.0622,VALID,144,VALID,0,
2012-07-21, 03:50:04,VALID,917.819,VALID,0,VALID,97.4425,VALID,0,VALID,19.0817,VALID,144,VALID,0,
2012-07-21, 03:51:04,VALID,917.743,VALID,0,VALID,97.4349,VALID,0,VALID,19.0427,VALID,143,VALID,0,
2012-07-21, 03:52:04,VALID,917.754,VALID,0,VALID,97.4196,VALID,0,VALID,19.0037,VALID,70,VALID,0,
2012-07-21, 03:53:04,VALID,917.704,VALID,0,VALID,97.4044,VALID,0,VALID,19.0037,VALID,69,VALID,0,
2012-07-21, 03:54:04,VALID,917.648,VALID,0,VALID,97.3815,VALID,0,VALID,18.9452,VALID,70,VALID,0,
2012-07-21, 03:55:04,VALID,917.597,VALID,0,VALID,97.3891,VALID,0,VALID,18.9452,VALID,84,VALID,0,
2012-07-21, 03:56:04,VALID,917.588,VALID,0,VALID,97.3968,VALID,0,VALID,18.9062,VALID,89,VALID,0,
2012-07-21, 03:57:04,VALID,917.567,VALID,0,VALID,97.3815,VALID,0,VALID,18.9062,VALID,83,VALID,0,
2012-07-21, 03:58:04,VALID,917.55,VALID,0,VALID,97.3891,VALID,0,VALID,18.8867,VALID,73,VALID,0,
2012-07-21, 03:59:04,VALID,917.555,VALID,0,VALID,97.3968,VALID,0,VALID,18.8658,VALID,73,VALID,0,